CAPE
0 0 0 0 0 0 0 0 0 0 0 43 34 16 194 204 369 516 313 364 488 447 387 281 414 301 311 468 224 424 520 423 403 903 1016 712 452 760 789 457 781 1014 1429 1663
0 0 0 0 0 0 0 0 0 0 0 30 40 22 218 248 269 123 64 156 362 448 421 404 258 264 250 536 540 378 836 648 408 854 457 1013 1024 741 701 327 1245 1338 1624 1885
0 0 0 0 0 0 0 0 0 0 0 5 14 31 136 235 133 69 92 196 348 386 372 412 293 293 361 648 480 735 637 924 578 949 857 940 1085 922 818 473 1022 1592 1576 1892
0 0 0 0 0 0 0 0 0 0 0 0 0 23 33 132 85 188 297 433 323 240 291 389 287 307 441 743 605 707 810 1651 1047 1256 1188 967 717 991 971 446 478 1392 1218 1655
0 0 0 0 0 0 0 0 0 0 0 0 0 2 0 35 96 248 493 368 244 306 375 335 350 402 406 800 834 664 964 1702 1361 1379 1323 1348 1146 1150 819 594 599 914 1219 1754
0 0 0 0 0 0 0 0 0 0 0 0 0 0 0 4 26 78 226 374 342 594 313 321 457 406 365 767 1151 1211 1121 1795 1428 1473 1609 1479 1381 953 953 690 507 1110 1073 1262
0 0 0 0 0 0 0 0 0 0 0 0 0 0 0 0 22 63 184 318 510 370 169 579 513 421 450 917 1255 1621 1624 1868 1712 1303 1398 1990 1369 1214 824 662 751 1249 1570 1368
0 0 0 0 0 0 0 0 0 0 0 0 0 0 0 0 0 23 94 268 378 392 657 643 453 558 579 630 1213 1946 1796 1785 2084 1824 1262 1111 2180 1420 847 1455 731 1139 1385 1559
0 0 0 0 0 0 0 0 0 0 0 0 0 0 0 0 0 0 3 76 224 757 896 552 523 677 702 707 1109 1621 1966 1751 1949 2017 1767 1198 1264 2357 1254 572 1373 1279 1337 1095
0 0 0 0 0 0 0 0 0 0 0 0 0 0 0 0 0 0 0 1 103 860 809 832 723 793 791 793 1009 1235 2095 1868 1859 1790 1959 1729 1269 1465 2188 1116 659 1937 979 1274
0 0 0 0 0 0 0 0 0 0 0 0 0 0 0 0 0 0 0 0 0 223 910 1096 896 841 893 880 991 1200 1694 2067 2034 1927 1780 1962 1620 1265 1891 2071 1064 1249 1829 1588
0 0 0 0 0 0 0 0 0 0 0 0 0 0 0 0 0 0 0 0 6 55 844 1317 1182 1084 985 952 943 1137 1382 2115 2172 2216 1908 2018 2023 1796 1335 2055 2031 639 1799 1716
0 0 0 0 0 0 0 0 0 0 0 0 0 0 0 0 0 0 0 0 0 65 872 1269 1384 1310 1181 1029 969 979 1261 1865 2229 2379 2433 2157 2187 2305 2005 1587 1681 2337 1115 2196
0 0 0 0 0 0 0 0 0 0 0 0 0 0 0 0 0 0 0 4 0 363 718 1125 1348 1483 1385 1166 1069 1033 1065 1460 2230 2452 2594 2672 2509 2505 2548 2225 1801 1485 2264 1927
0 0 0 0 0 0 6 0 0 0 0 0 0 0 0 1 6 17 25 24 96 179 572 1098 1307 1522 1579 1368 1214 1157 1126 1284 1583 2465 2716 2739 2807 2723 2684 2637 2687 2366 1550 2174
0 0 0 0 0 4 4 0 0 0 0 0 0 0 0 2 8 0 0 0 48 271 671 918 1174 1499 1649 1656 1433 1305 1247 1371 1503 2183 2598 2864 2903 2868 2808 2832 2682 2875 2819 2167
0 0 0 0 12 26 1 0 0 0 0 0 0 0 4 14 1 0 0 0 37 59 176 433 692 1255 1617 1734 1791 1657 1590 1510 1655 1773 2303 2726 2898 2938 2975 2907 2928 2803 2840 2929
1 0 0 8 23 2 0 5 6 0 0 0 0 9 0 48 184 32 0 0 5 58 106 270 315 572 947 1590 2041 2002 1967 1969 1797 1881 2000 2171 2839 3030 3034 3160 3006 3094 2989 3072
0 0 0 33 18 0 3 4 8 4 13 19 325 196 101 590 591 432 597 687 647 502 504 531 357 575 296 429 1021 2385 2440 2462 2547 2192 2346 2315 2709 2890 3065 3120 3365 3291 3313 3246
0 0 0 7 8 13 42 0 0 0 19 66 390 354 92 476 411 275 370 577 769 904 911 707 542 277 972 702 407 2028 2668 2581 2643 2897 3125 3275 2837 3071 3052 3201 3294 3429 3497 3513
0 0 3 1 9 11 22 0 0 7 14 80 408 328 414 178 70 79 268 666 1310 1290 1134 658 620 484 556 947 325 365 1195 2278 2792 2627 2562 3184 3606 3510 3616 3378 3403 3584 3667 3732
0 0 12 10 7 35 29 1 5 0 1 43 195 428 176 39 29 145 244 936 1575 1846 1491 1293 1184 1430 1054 715 476 808 2006 2211 2296 2686 2861 3098 3334 3289 3652 3850 3846 3904 4002 4017
0 0 4 21 19 0 0 0 0 0 8 32 40 98 40 1 19 146 198 1275 1276 1358 1780 2152 2360 2383 4001 3514 3410 2813 3308 3468 3086 3764 3213 3274 3479 3918 3476 3867 4257 4182 4154 4144
1 0 0 1 0 0 0 0 0 0 16 35 0 0 0 0 0 5 147 1292 1137 1215 1321 1569 2034 2690 3040 3607 3334 3203 3410 3456 3819 3190 4562 3956 4244 4296 3890 4220 4188 4440 4386 4243
0 0 0 0 0 0 0 0 0 0 0 37 0 0 0 0 0 0 0 55 875 1019 697 864 1431 1920 2264 2422 2717 3272 3433 3507 3436 3832 4672 4483 4476 4321 4330 4027 4301 4082 4014 4020
0 0 0 0 0 0 0 0 0 0 0 17 0 0 0 0 0 0 0 20 178 163 78 137 508 1606 1891 1740 1682 1393 1941 2866 3283 3698 3911 4036 4088 4257 4295 4074 3716 3529 4070 4014
CIN
0 0 0 0 0 0 0 0 0 0 0 -1 -18 -15 -44 -126 -259 -220 -241 -51 -10 -62 -21 -3 -3 -19 -19 -71 -135 -101 -126 -152 -125 -78 -51 -73 -98 -70 -15 -52 -93 -87 -72 -51
0 0 0 0 0 0 0 0 0 0 0 -3 -8 -6 -123 -195 -114 -387 -441 -90 -33 -67 -29 -48 -16 -40 -63 -95 -96 -117 -105 -166 -162 -95 -119 -52 -54 -65 -25 -57 -42 -83 -63 -48
0 0 0 0 0 0 0 0 0 0 0 -3 -4 -8 -114 -58 -64 -102 -27 -70 -31 -87 -71 -82 -49 -65 -84 -119 -159 -138 -137 -158 -172 -108 -94 -51 -32 -15 -23 -68 -56 -48 -44 -49
0 0 0 0 0 0 0 0 0 0 0 0 -5 -2 -25 -60 -23 -55 -60 -148 -152 -121 -100 -97 -96 -70 -104 -146 -181 -146 -131 -80 -129 -73 -60 -61 -90 -66 -64 -92 -113 -23 -65 -40
0 0 0 0 0 0 0 0 0 0 0 0 0 -1 0 -55 -133 -104 -126 -162 -326 -263 -83 -87 -130 -122 -113 -113 -146 -171 -128 -72 -73 -70 -58 -54 -53 -51 -49 -68 -95 -49 -36 -40
0 0 0 0 0 0 0 0 0 0 0 0 0 0 -1 -10 -33 -64 -96 -184 -222 -86 -107 -126 -145 -132 -115 -137 -107 -114 -114 -67 -75 -57 -64 -46 -50 -62 -46 -94 -130 -83 -89 -74
0 0 0 0 0 0 0 0 0 0 0 0 0 0 0 0 -22 -21 -89 -164 -149 -77 -22 -145 -148 -38 -84 -157 -120 -120 -102 -69 -78 -111 -82 -42 -72 -57 -101 -114 -105 -75 -65 -78
0 0 0 0 0 0 0 0 0 0 0 0 0 0 0 0 -1 -17 -48 -132 -88 -47 -62 -172 -206 -61 -39 -202 -166 -121 -120 -118 -93 -111 -147 -140 -42 -73 -129 -68 -118 -103 -60 -62
0 0 0 0 0 0 0 0 0 0 0 0 0 0 0 0 0 0 -6 -21 -40 -77 -98 -147 -134 -62 -46 -133 -211 -187 -142 -131 -106 -106 -121 -163 -150 -37 -113 -221 -115 -51 -63 -66
0 0 0 0 0 0 0 0 0 0 0 0 0 0 0 0 0 0 0 0 -26 -63 -63 -156 -94 -57 -56 -51 -246 -198 -160 -155 -154 -140 -126 -148 -219 -184 -76 -116 -209 -73 -104 -60
0 0 0 0 0 0 0 0 0 0 0 0 0 0 0 0 0 0 0 0 0 -46 -91 -141 -93 -73 -85 -56 -245 -237 -197 -154 -124 -143 -183 -166 -189 -223 -116 -70 -141 -172 -57 -59
0 0 0 0 0 0 0 0 0 0 0 0 0 0 0 0 0 0 0 0 -23 -38 -80 -146 -191 -193 -94 -77 -224 -265 -253 -209 -192 -162 -175 -144 -142 -158 -224 -105 -92 -236 -129 -83
0 0 0 0 0 0 0 0 0 0 0 0 0 0 0 0 0 0 0 0 0 -46 -72 -114 -144 -173 -193 -99 -84 -66 -275 -274 -232 -173 -143 -167 -145 -119 -165 -219 -181 -95 -219 -125
0 0 0 0 0 0 0 0 0 0 0 0 0 0 0 0 0 0 0 -43 0 -74 -51 -84 -107 -132 -150 -143 -100 -72 -272 -266 -239 -210 -187 -175 -177 -159 -142 -182 -242 -278 -155 -162
0 0 0 0 0 0 -1 0 0 0 0 0 0 0 0 -52 -105 -151 -113 -132 -132 -113 -48 -51 -85 -96 -132 -150 -89 -99 -78 -260 -254 -241 -217 -230 -198 -200 -185 -180 -177 -223 -323 -197
0 0 0 0 0 -2 -6 0 0 0 0 0 0 0 0 -28 -140 0 0 0 -118 -71 -59 -44 -45 -76 -99 -131 -124 -110 -246 -250 -258 -262 -290 -243 -230 -217 -224 -213 -234 -193 -192 -248
0 0 0 0 -3 -2 -1 0 0 0 0 0 0 0 -49 -81 -16 0 0 0 -89 -79 -27 -20 -26 -60 -65 -113 -157 -202 -225 -241 -267 -299 -287 -288 -263 -265 -259 -253 -231 -233 -221 -203
0 0 0 -2 -5 -7 0 -7 -6 0 0 0 0 -84 0 -76 -215 -180 0 0 -63 -87 -54 -10 -12 -16 -24 -64 -116 -113 -152 -190 -252 -265 -312 -303 -293 -289 -288 -256 -265 -232 -231 -228
0 0 0 -2 -2 0 -1 -7 -8 -19 -202 -283 -312 -50 -115 -209 -275 -267 -252 -274 -279 -280 -309 -293 -277 -242 -143 -17 -33 -110 -167 -192 -245 -250 -285 -331 -337 -308 -303 -301 -259 -232 -193 -203
0 0 0 -2 -5 -7 -9 0 -25 0 -116 -262 -205 -269 -24 -213 -265 -200 -198 -246 -293 -244 -246 -252 -313 -366 -256 -273 -276 -48 -94 -134 -106 -154 -236 -278 -280 -295 -319 -316 -281 -242 -213 -195
0 0 -2 -1 -1 -6 -40 0 0 -57 -19 -183 -133 -188 -178 -195 -270 -278 -231 -244 -239 -254 -286 -267 -306 -247 -293 -246 -312 -182 -178 -184 -188 -211 -196 -213 -188 -232 -265 -256 -251 -231 -196 -164
0 0 -2 -7 -10 -6 -58 -53 -15 0 -15 -97 -84 -71 -86 -161 -262 -249 -309 -155 -102 -146 -147 -126 -146 -192 -199 -248 -152 -282 -215 -190 -169 -179 -198 -259 -269 -228 -218 -192 -184 -177 -147 -128
0 0 -3 -8 -25 -2 0 0 0 0 -11 -52 -88 -80 -97 -23 -349 -266 -262 -41 -77 -138 -195 -183 -148 -117 -84 -146 -156 -183 -185 -190 -152 -119 -171 -291 -238 -209 -173 -145 -140 -104 -93 -81
-4 0 0 0 0 0 0 0 0 0 -16 -6 0 0 0 0 0 -261 -250 -9 -56 -124 -205 -191 -153 -27 -26 -38 -78 -135 -142 -146 -168 -172 -98 -159 -186 -146 -135 -114 -100 -57 -50 -45
0 0 0 0 0 0 0 0 0 0 0 -10 -10 0 0 0 0 0 0 -441 -115 -148 -240 -198 -107 -25 -61 -54 -40 -58 -89 -98 -120 -106 -50 -84 -102 -121 -105 -75 -28 -43 -37 -30
0 0 0 0 0 0 0 0 0 0 0 -98 0 0 0 0 0 0 0 -112 -419 -473 -519 -443 -308 -53 -64 -109 -119 -230 -171 -68 -68 -73 -58 -54 -62 -63 -41 -34 -39 -49 -19 -13
Wind_Speed
nan nan nan nan nan nan nan nan nan nan nan nan nan nan 32 45 44 38 18 5 17 22 21 22 18 11 11 10 7 4 6 3 7 11 10 8 8 8 8 5 5 6 7 9
nan nan nan nan nan nan nan nan nan nan nan nan nan nan 44 49 49 53 nan 14 20 28 21 22 19 12 9 9 9 7 8 5 7 9 9 10 7 8 6 5 1 4 5 6
nan nan nan nan nan nan nan nan nan nan nan nan nan nan 41 36 36 nan nan 11 10 29 28 24 21 13 6 7 8 8 8 8 8 9 10 11 10 9 7 5 4 5 3 4
nan nan nan nan nan nan nan nan nan nan nan nan nan nan nan 29 nan 31 35 28 31 21 27 21 22 13 6 5 7 9 10 12 10 10 7 3 4 5 6 5 5 1 4 5
nan nan nan nan nan nan nan nan nan nan nan nan nan nan nan nan nan 33 37 27 30 18 17 19 19 18 10 9 8 6 9 11 9 9 7 6 5 7 8 8 2 2 3 6
nan nan nan nan nan nan nan nan nan nan nan nan nan nan nan nan nan nan 39 38 37 29 20 15 18 13 13 9 10 7 6 7 9 8 9 5 3 4 8 7 6 5 1 3
nan nan nan nan nan nan nan nan nan nan nan nan nan nan nan nan nan nan 40 40 37 24 24 15 24 16 11 13 9 11 10 8 7 5 4 6 3 1 3 3 5 5 4 2
nan nan nan nan nan nan nan nan nan nan nan nan nan nan nan nan nan nan nan 41 36 34 25 24 23 20 13 15 12 11 12 8 7 6 3 2 5 5 2 5 4 6 7 7
nan nan nan nan nan nan nan nan nan nan nan nan nan nan nan nan nan nan nan nan 30 34 32 31 22 20 15 14 15 13 11 9 6 4 3 2 1 3 2 3 5 5 9 11
nan nan nan nan nan nan nan nan nan nan nan nan nan nan nan nan nan nan nan nan 33 34 32 34 20 20 17 13 13 14 10 8 5 3 2 1 4 5 2 5 5 6 7 9
nan nan nan nan nan nan nan nan nan nan nan nan nan nan nan nan nan nan nan nan nan 26 36 32 18 21 25 16 13 12 9 6 4 3 1 2 2 1 2 4 7 7 8 9
nan nan nan nan nan nan nan nan nan nan nan nan nan nan nan nan nan nan nan nan nan nan 37 35 24 19 21 17 15 12 9 6 5 4 2 2 1 2 6 7 6 11 8 7
nan nan nan nan nan nan nan nan nan nan nan nan nan nan nan nan nan nan nan nan nan nan 35 36 29 16 19 17 15 11 9 7 7 7 5 2 2 7 11 10 11 8 15 12
nan nan nan nan nan nan nan nan nan nan nan nan nan nan nan nan nan nan nan nan nan 42 36 35 28 15 13 16 13 11 9 7 10 8 5 5 7 10 8 10 13 16 14 18
nan nan nan nan nan nan nan nan nan nan nan nan nan nan nan nan nan nan nan nan nan 30 38 39 29 18 11 14 13 9 10 10 9 9 4 6 7 11 9 12 14 17 20 15
nan nan nan nan nan nan nan nan nan nan nan nan nan nan nan nan nan nan nan nan nan 42 41 41 31 27 15 13 16 15 9 9 12 7 8 8 10 11 11 12 13 13 16 16
nan nan nan nan nan nan nan nan nan nan nan nan nan nan nan nan nan nan nan nan nan nan 50 52 48 41 28 12 7 13 15 10 8 5 4 8 10 10 10 10 11 14 13 12
nan nan nan nan nan nan nan nan nan nan nan nan nan nan nan nan 38 nan nan nan nan nan 49 51 50 33 22 22 11 10 15 18 13 8 8 6 6 5 6 9 12 11 12 15
nan nan nan nan nan nan nan nan nan nan nan nan 57 27 37 48 59 56 55 52 46 48 45 39 34 30 27 20 21 16 18 19 17 10 10 8 9 8 7 9 11 10 10 13
nan nan nan nan nan nan nan nan nan nan nan nan 71 61 nan 52 48 48 51 59 52 46 39 42 40 34 31 31 32 23 18 16 15 12 12 17 16 13 11 9 10 14 15 16
nan nan nan nan nan nan nan nan nan nan nan nan 73 66 69 67 nan nan 58 58 57 45 41 41 39 35 34 32 35 35 29 20 17 24 26 24 21 20 20 19 20 18 19 19
nan nan nan nan nan nan nan nan nan nan nan nan 78 68 75 nan nan 66 61 53 57 57 48 47 44 37 31 33 38 37 32 22 23 22 23 26 26 25 29 31 29 26 25 25
nan nan nan nan nan nan nan nan nan nan nan nan nan nan nan nan nan 74 66 60 52 52 52 51 48 42 41 39 33 30 26 27 21 31 25 31 35 35 36 36 36 35 33 32
nan nan nan nan nan nan nan nan nan nan nan nan nan nan nan nan nan nan 70 62 57 52 50 47 49 44 42 37 33 33 30 30 29 25 28 35 38 39 41 39 36 37 38 36
nan nan nan nan nan nan nan nan nan nan nan nan nan nan nan nan nan nan nan nan 58 43 50 52 50 46 44 40 38 39 35 33 32 31 28 29 35 38 40 38 36 33 36 34
nan nan nan nan nan nan nan nan nan nan nan nan nan nan nan nan nan nan nan nan 47 55 nan 50 48 45 43 42 40 37 35 35 35 30 30 31 33 34 35 36 44 52 47 54
Wind_Direction
nan nan nan nan nan nan nan nan nan nan nan nan nan nan 306 278 287 304 253 105 13 1 356 357 340 305 291 275 299 248 263 210 177 175 174 161 140 137 130 127 43 36 48 44
nan nan nan nan nan nan nan nan nan nan nan nan nan nan 279 287 305 318 nan 39 61 354 9 350 355 320 310 273 270 241 237 250 187 180 166 169 164 149 143 153 90 42 51 49
nan nan nan nan nan nan nan nan nan nan nan nan nan nan 258 271 303 nan nan 332 345 346 357 358 3 348 290 275 285 267 234 248 216 201 191 182 178 176 174 157 205 110 74 53
nan nan nan nan nan nan nan nan nan nan nan nan nan nan nan 281 nan 286 303 302 341 18 345 6 358 350 346 281 276 275 254 246 236 230 219 199 168 156 163 181 190 119 75 54
nan nan nan nan nan nan nan nan nan nan nan nan nan nan nan nan nan 305 312 332 331 337 301 349 3 344 329 291 293 292 261 244 251 246 235 221 212 196 189 184 183 143 86 27
nan nan nan nan nan nan nan nan nan nan nan nan nan nan nan nan nan nan 319 317 341 356 6 348 346 352 329 299 303 306 310 273 260 259 252 263 239 205 194 196 182 195 219 32
nan nan nan nan nan nan nan nan nan nan nan nan nan nan nan nan nan nan 298 314 320 351 348 348 350 342 335 309 307 300 312 314 288 299 312 243 232 207 189 196 212 237 261 282
nan nan nan nan nan nan nan nan nan nan nan nan nan nan nan nan nan nan nan 308 311 295 345 1 353 340 344 321 311 311 314 304 307 307 337 16 208 182 174 194 197 232 281 296
nan nan nan nan nan nan nan nan nan nan nan nan nan nan nan nan nan nan nan nan 285 306 331 345 347 340 341 318 316 316 308 294 295 280 255 90 110 180 74 44 237 268 265 285
nan nan nan nan nan nan nan nan nan nan nan nan nan nan nan nan nan nan nan nan 293 310 323 322 342 349 349 326 303 307 304 298 290 281 220 147 64 49 259 272 300 276 301 294
nan nan nan nan nan nan nan nan nan nan nan nan nan nan nan nan nan nan nan nan nan 303 304 316 347 352 343 322 297 297 300 322 327 345 359 52 101 29 279 301 323 318 294 288
nan nan nan nan nan nan nan nan nan nan nan nan nan nan nan nan nan nan nan nan nan nan 284 303 326 333 326 329 303 301 293 313 312 274 243 162 235 340 359 355 336 2 4 10
nan nan nan nan nan nan nan nan nan nan nan nan nan nan nan nan nan nan nan nan nan nan 270 284 296 310 333 326 308 310 300 295 285 291 297 323 17 6 359 16 16 347 19 25
nan nan nan nan nan nan nan nan nan nan nan nan nan nan nan nan nan nan nan nan nan 227 252 274 279 296 323 326 312 308 290 274 287 293 312 340 358 3 6 6 20 27 22 29
nan nan nan nan nan nan nan nan nan nan nan nan nan nan nan nan nan nan nan nan nan 225 243 262 275 278 296 302 304 279 286 290 288 303 327 3 349 3 7 12 14 21 26 32
nan nan nan nan nan nan nan nan nan nan nan nan nan nan nan nan nan nan nan nan nan 223 224 237 250 266 275 286 294 273 250 289 304 316 353 334 343 350 1 10 19 20 20 31
nan nan nan nan nan nan nan nan nan nan nan nan nan nan nan nan nan nan nan nan nan nan 223 222 233 244 236 234 287 306 286 256 267 300 305 331 349 11 20 22 17 19 14 8
nan nan nan nan nan nan nan nan nan nan nan nan nan nan nan nan 233 nan nan nan nan nan 225 221 225 237 239 235 254 278 260 248 247 244 258 286 345 13 23 18 24 11 4 359
nan nan nan nan nan nan nan nan nan nan nan nan 183 199 244 241 234 225 219 218 222 229 232 233 234 234 228 234 244 267 263 263 244 233 244 270 282 321 339 8 356 348 341 336
nan nan nan nan nan nan nan nan nan nan nan nan 191 206 nan 227 228 227 223 206 214 223 225 230 230 228 218 220 226 237 253 266 276 253 261 269 286 289 302 302 305 298 311 321
nan nan nan nan nan nan nan nan nan nan nan nan 198 199 213 218 nan nan 226 203 208 212 217 223 225 229 230 234 240 239 245 243 247 246 253 258 269 282 279 265 266 277 285 289
nan nan nan nan nan nan nan nan nan nan nan nan 196 198 209 nan nan 221 223 215 195 201 210 215 221 215 210 220 235 241 241 237 250 249 256 259 259 263 260 266 261 263 270 275
nan nan nan nan nan nan nan nan nan nan nan nan nan nan nan nan nan 215 223 224 204 206 212 215 218 213 224 226 231 235 231 226 212 215 232 245 251 254 256 258 257 260 261 266
nan nan nan nan nan nan nan nan nan nan nan nan nan nan nan nan nan nan 218 226 225 212 219 218 216 216 227 229 230 236 229 224 223 229 229 233 240 245 251 252 256 259 261 262
nan nan nan nan nan nan nan nan nan nan nan nan nan nan nan nan nan nan nan nan 228 220 219 217 218 218 226 228 226 225 225 222 220 225 236 236 239 246 252 256 254 260 256 263
nan nan nan nan nan nan nan nan nan nan nan nan nan nan nan nan nan nan nan nan 228 222 nan 215 215 221 230 236 232 228 227 225 224 228 241 242 244 246 249 254 252 236 254 262